Location: Newark
(59.8814°N, 10.8258°E)
Time: 20:49:17
(UTC+00:00)

Envisat - Pass Details

Date: 02 February 2020
Orbit: 764 x 766 km, 98.1° (Epoch: 22 February)

Event Time Altitude Azimuth Distance (km) Brightness Sun altitude
Rises 04:30:38 0° 22° (NNE) 3,248 6.6 -22.1°
Reaches altitude 10° 04:33:50 10° 44° (NE) 2,316 6.1 -21.7°
Maximum altitude 04:37:01 16° 83° (E) 1,901 6.0 -21.3°
Drops below altitude 10° 04:40:12 10° 121° (ESE) 2,305 6.3 -20.9°
Sets 04:43:22 0° 143° (SE) 3,226 6.7 -20.5°
